CZ-4C DEB

Satellite information

Favourite Embed

Satellite Type and Status

DEBRISIN ORBIT

Key statistics

Satellite CZ-4C DEB at a glance.

Uptime

3571

Days in orbit

Revolutions

≈ 14.9

Per day

Orbit

SSO

Sun Synchronous Orbit

Inclination

98.3

Latest

Satellite identification and parameters

Extended collection of information and parameters for CZ-4C DEB.

Object identification

Identified? True

Debris? True

Object name: CZ-4C DEB

International designator: 2015-069E

Object number (NORAD): 42672

Object ID (CCSDS): 42672

Country: PEOPLES REPUBLIC OF CHINA (PRC)

Current information (Y/N): Y

RCS size: SMALL

Orbital parameters

Period: 96.473 minutes

Inclination: 98.2603 deg

SMA: 6967.822 km

Apoapsis: 653.363 km

Periapsis: 526.012 km

RAAN: 213.4974 deg

Eccentricy: 0.00913851

Argument of periapsis: 181.0071 deg

Mean anomaly: 179.0977 deg

Mean motion: 14.92647118 rev/day

Mean motion (dot): 0.00024487 rev/day2

B* drag term: 0.0021909767 1/REarth

Two-line elements (TLE)

Creation date: Sept. 2, 2025, 11:42 p.m.

Reference frame: TEME

Reference center: EARTH

Epoch: Sept. 2, 2025, 8:39 a.m. UTC

TLE line 0: 0 CZ-4C DEB

TLE line 1: 1 42672U 15069E 25245.36072509 .00024487 00000-0 21910-2 0 9992

TLE line 2: 2 42672 98.2603 213.4974 0091385 181.0071 179.0977 14.92647118515997

Live tracking on map

Real-time ground track for satellite CZ-4C DEB.

In-orbit conjunctions

A list of the most updated potential collisions computed for object CZ-4C DEB.

Target Orbit TCA Probability of collision Miss distance Type
COSMOS 2242 LEO 2025-08-29 22:10:38 0.0002231762 529.0 (m) PAYLOAD
SWAS LEO 2024-06-25 23:14:46 0.0005631964 104.0 (m) PAYLOAD

Associated space launch

CZ-4C DEB was lifted into orbit during the mission ‘Long March 4C | Yaogan-29’, on board a Long March 4C space rocket.

The launch took place on Nov. 26, 2015, 9:24 p.m. from Launch Complex 9.

For more information about the launch, click the button.

Launch to space Long March 4C | Yaogan-29
Long March 4C | Yaogan-29

Agency: N/A

Status: Launch Successful

Launch date: Nov. 26, 2015, 9:24 p.m. UTC

Rocket: Long March 4C

Launch pad: Launch Complex 9

Location: Taiyuan Satellite Launch Center, People's Republic of China

...

Latest news about this satellite

There are no fresh news available about this satellite. Check back as we update our databases every day.


Newsletter sign-up

Weekly statistics, charts and insights to help you stay on top of the space industry.